Date,TemperatureHighF,TemperatureAvgF,TemperatureLowF,DewpointHighF,DewpointAvgF,DewpointLowF,HumidityHigh,HumidityAvg,HumidityLow,PressureMaxIn,PressureMinIn,WindSpeedMaxMPH,WindSpeedAvgMPH,GustSpeedMaxMPH,PrecipitationSumIn
2013-1-1,36,26,19,26,18,-100,98,76,55,0.00,40.00,36,14,46,0.08
2013-1-2,29,23,15,16,10,-100,77,57,46,0.00,40.00,30,16,39,0.00
2013-1-3,35,25,14,16,2,-100,59,38,23,0.00,40.00,10,5,12,0.00
2013-1-4,42,31,18,19,10,3,63,42,27,0.00,40.00,12,6,16,0.00
2013-1-5,40,30,19,21,18,12,89,62,45,0.00,40.00,16,8,21,0.00
2013-1-6,36,25,14,19,12,-100,86,61,37,0.00,40.00,17,6,19,0.00
2013-1-7,36,29,24,23,19,-100,83,66,50,0.00,40.00,12,5,15,0.00
2013-1-8,42,35,24,22,19,15,78,52,36,0.00,40.00,29,11,37,0.00
2013-1-9,52,36,24,29,22,9,73,57,17,0.00,40.00,18,7,22,0.00
2013-1-10,52,32,16,29,22,10,100,69,18,0.00,40.00,20,10,26,0.02
2013-1-11,16,6,2,15,0,-100,97,88,89,0.00,40.00,0,0,1,0.11
2013-1-12,17,6,1,12,3,-100,93,88,78,0.00,40.00,0,0,1,0.00
2013-1-13,14,9,3,7,3,-100,93,78,62,0.00,40.00,11,1,19,0.00
2013-1-14,24,12,7,4,0,-100,72,61,39,0.00,40.00,10,3,13,0.00
2013-1-15,38,28,14,28,20,1,98,74,49,0.00,40.00,21,7,28,0.02
2013-1-16,44,35,25,24,19,14,76,54,31,0.00,40.00,24,8,34,0.00
2013-1-17,46,35,25,25,19,12,67,51,31,0.00,40.00,9,4,11,0.00
2013-1-18,54,45,34,21,12,-100,50,28,16,0.00,40.00,26,15,35,0.00
2013-1-19,40,34,26,26,19,-100,89,58,34,0.00,40.00,21,10,27,0.00
2013-1-20,37,22,16,20,14,-100,97,80,39,0.00,40.00,32,10,42,0.08
2013-1-21,38,23,16,24,19,16,99,84,56,0.00,40.00,9,4,12,0.00
2013-1-22,47,36,25,20,13,8,71,39,22,0.00,40.00,12,4,16,0.00
2013-1-23,38,28,21,21,17,9,92,67,29,0.00,40.00,16,8,19,0.00
2013-1-24,55,39,20,26,19,-100,92,51,17,0.00,40.00,17,9,25,0.00
2013-1-25,47,35,26,27,23,-100,86,63,35,0.00,40.00,12,6,16,0.00
2013-1-26,51,40,31,30,23,-100,77,55,38,0.00,40.00,12,6,14,0.00
2013-1-27,35,30,26,33,28,-100,100,94,71,0.00,40.00,21,8,25,0.25
2013-1-28,28,23,19,28,18,-100,100,89,59,0.00,40.00,11,4,13,0.08
2013-1-29,23,13,-3,22,7,-100,98,82,53,0.00,40.00,30,11,37,0.10
2013-1-30,32,18,-4,30,14,-100,100,91,70,0.00,40.00,28,14,35,0.63
2013-1-31,29,14,3,24,10,-100,97,90,78,0.00,40.00,14,5,17,0.03
2013-2-1,37,33,27,33,28,24,100,81,62,0.00,40.00,35,13,45,0.08
2013-2-2,38,32,24,26,20,-100,79,63,53,0.00,40.00,27,12,34,0.00
2013-2-3,43,34,27,24,19,-100,70,54,35,0.00,40.00,18,6,22,0.00
2013-2-4,42,36,27,27,22,18,69,58,48,0.00,40.00,20,8,26,0.00
2013-2-5,40,34,29,29,25,-100,85,71,58,0.00,40.00,20,7,26,0.00
2013-2-6,40,35,28,26,22,14,73,59,43,0.00,40.00,18,8,24,0.00
2013-2-7,32,27,23,25,17,-100,86,69,51,0.00,40.00,14,6,16,0.00
2013-2-8,38,31,23,23,18,-100,80,63,48,0.00,40.00,12,4,14,0.00
2013-2-9,33,27,22,26,19,-100,97,77,61,0.00,40.00,14,5,19,0.06
2013-2-10,27,20,13,26,16,-100,100,92,80,0.00,40.00,30,18,38,0.43
2013-2-11,26,16,6,12,5,-100,96,68,39,0.00,40.00,11,6,12,0.00
2013-2-12,36,28,18,25,16,8,71,62,52,0.00,40.00,17,6,22,0.00
2013-2-13,42,33,26,32,24,-100,100,72,45,0.00,40.00,31,14,43,0.40
2013-2-14,29,24,21,29,18,11,100,79,54,0.00,40.00,21,13,30,0.36
2013-2-15,40,27,22,24,19,-100,100,76,39,0.00,40.00,22,9,29,0.25
2013-2-16,53,36,26,29,22,18,73,58,34,0.00,40.00,9,3,11,0.00
2013-2-17,44,32,26,31,24,-100,100,77,32,0.00,40.00,34,18,45,0.32
2013-2-18,27,20,8,26,16,-100,100,90,76,0.00,40.00,24,10,30,0.49
2013-2-19,25,13,1,19,6,-100,97,85,71,0.00,40.00,17,7,20,0.00
2013-2-20,22,16,12,19,14,-100,100,92,83,0.00,40.00,13,6,17,0.00
2013-2-21,37,19,10,21,13,-100,100,86,45,0.00,40.00,7,3,9,0.00
2013-2-22,35,24,16,19,9,-100,93,59,41,0.00,40.00,15,5,19,0.00
2013-2-23,38,29,22,32,21,-100,100,76,46,0.00,40.00,32,10,39,0.29
2013-2-24,34,25,16,25,18,-100,99,76,48,0.00,40.00,21,11,26,0.02
2013-2-25,34,25,15,25,12,-100,77,62,51,0.00,40.00,19,7,26,0.00
2013-2-26,34,28,17,27,18,-100,100,71,54,0.00,40.00,20,13,26,0.01
2013-2-27,38,25,15,19,10,-100,97,58,35,0.00,40.00,10,4,11,0.00
2013-2-28,38,29,22,22,15,-100,78,59,42,0.00,40.00,16,8,21,0.00
2013-3-1,48,37,22,33,25,-100,76,62,46,0.00,40.00,22,10,27,0.00
2013-3-2,57,45,37,32,26,-100,66,48,34,0.00,40.00,11,3,12,0.00
2013-3-3,49,42,32,33,27,-100,94,59,41,0.00,40.00,50,6,72,0.00
2013-3-4,20,16,12,17,8,-100,96,83,75,0.00,40.00,39,19,49,0.01
2013-3-5,27,16,6,20,10,-100,96,82,72,0.00,40.00,16,9,18,0.00
2013-3-6,38,25,15,28,17,-100,91,78,66,0.00,40.00,19,9,22,0.00
2013-3-7,47,36,25,27,22,14,86,58,31,0.00,40.00,17,6,24,0.00
2013-3-8,42,33,27,30,27,-100,92,78,61,0.00,40.00,17,8,19,0.00
2013-3-9,37,31,24,30,22,-100,100,75,49,0.00,40.00,21,13,30,0.00
2013-3-10,48,34,20,27,19,-100,86,59,36,0.00,40.00,12,6,15,0.00
2013-3-11,40,31,23,33,26,-100,100,85,49,0.00,40.00,24,14,37,0.52
2013-3-12,36,26,15,26,17,-100,89,73,59,0.00,40.00,15,9,18,0.00
2013-3-13,56,43,32,30,25,-100,68,50,36,0.00,40.00,17,6,21,0.00
2013-3-14,67,50,41,31,26,-100,60,41,23,0.00,40.00,9,4,13,0.00
2013-3-15,60,48,39,31,24,-100,71,42,21,0.00,40.00,24,10,32,0.00
2013-3-16,48,37,27,33,27,-100,100,72,39,0.00,40.00,12,5,24,0.01
2013-3-17,37,30,17,33,23,-100,100,81,40,0.00,40.00,40,20,54,0.06
2013-3-18,37,23,8,22,14,-100,100,73,28,0.00,40.00,26,8,38,0.00
2013-3-19,30,25,20,24,19,-100,99,79,56,0.00,40.00,15,8,21,0.05
2013-3-20,47,30,16,26,18,-100,92,67,38,0.00,40.00,21,12,26,0.00
2013-3-21,39,32,29,32,24,16,100,74,48,0.00,40.00,28,13,37,0.29
2013-3-22,30,24,14,26,13,-100,99,66,51,0.00,40.00,21,12,25,0.08
2013-3-23,17,12,8,16,6,-100,96,85,77,0.00,40.00,14,9,17,0.00
2013-3-25,38,26,9,16,12,5,96,59,26,0.00,40.00,16,8,22,0.00
2013-3-26,48,34,21,21,12,-100,70,46,21,0.00,40.00,10,4,16,0.00
2013-3-27,58,42,25,28,20,16,74,45,20,0.00,40.00,9,3,14,0.00
2013-3-28,61,47,35,29,22,-100,62,39,23,0.00,40.00,9,4,14,0.00
2013-3-29,57,47,38,40,30,23,95,53,34,0.00,40.00,17,8,30,0.07
2013-3-30,54,43,36,36,27,-100,93,59,25,0.00,40.00,30,12,40,0.17
2013-3-31,55,42,29,27,22,-100,81,50,29,0.00,40.00,26,12,36,0.00
2013-4-1,56,41,27,29,21,-100,88,51,21,0.00,40.00,11,5,18,0.00
2013-4-2,63,46,27,27,22,19,78,44,18,0.00,40.00,13,6,15,0.00
2013-4-3,61,50,37,31,25,19,74,39,23,0.00,40.00,27,10,39,0.00
2013-4-4,60,46,31,33,30,-100,89,57,31,0.00,40.00,15,8,17,0.00
2013-4-5,60,48,41,44,35,30,93,62,34,0.00,40.00,27,8,36,0.13
2013-4-6,58,49,38,38,30,-100,87,51,31,0.00,40.00,20,6,26,0.00
2013-4-7,58,45,36,39,35,27,96,69,31,0.00,40.00,15,5,22,0.06
2013-4-8,39,22,15,39,18,-100,100,94,93,0.00,40.00,30,16,37,0.15
2013-4-9,19,15,12,15,6,-100,96,82,61,0.00,40.00,12,6,15,0.03
2013-4-10,33,21,9,25,14,-100,96,79,57,0.00,40.00,17,10,20,0.00
2013-4-11,47,37,24,36,29,-100,95,74,50,0.00,40.00,29,13,39,0.00
2013-4-12,43,35,31,34,26,-100,100,75,43,0.00,40.00,26,12,35,0.13
2013-4-13,51,36,29,34,30,24,100,81,50,0.00,40.00,28,14,38,0.42
2013-4-14,30,25,18,29,18,-100,100,83,67,0.00,40.00,37,23,47,0.22
2013-4-15,26,20,13,21,16,-100,99,88,70,0.00,40.00,14,7,19,0.01
2013-4-16,26,21,17,21,16,-100,100,88,77,0.00,40.00,6,4,12,0.06
2013-4-17,27,21,17,24,17,-100,100,90,68,0.00,40.00,17,9,22,0.32
2013-4-18,45,31,15,29,17,-100,95,60,33,0.00,40.00,24,14,37,0.00
2013-4-19,52,43,33,32,24,-100,72,50,31,0.00,40.00,19,8,26,0.03
2013-4-20,55,45,38,37,29,-100,94,57,32,0.00,40.00,29,12,35,0.03
2013-4-21,44,30,26,36,23,-100,100,90,62,0.00,40.00,21,9,32,0.36
2013-4-22,29,22,13,26,17,-100,100,85,63,0.00,40.00,14,4,18,0.10
2013-4-23,38,24,12,26,5,-100,83,55,37,0.00,40.00,13,5,17,0.00
2013-4-24,47,34,28,34,25,-100,100,76,36,0.00,40.00,22,13,34,0.20
2013-4-25,62,52,35,26,18,8,68,28,13,0.00,40.00,19,10,28,0.00
2013-4-26,68,55,39,30,25,-100,59,33,20,0.00,40.00,11,5,17,0.00
2013-4-27,74,61,45,34,24,14,49,27,11,0.00,40.00,19,7,30,0.00
2013-4-28,63,52,43,39,31,-100,82,47,25,0.00,40.00,24,11,32,0.03
2013-4-29,64,46,38,42,32,-100,93,69,22,0.00,40.00,28,10,41,0.30
2013-4-30,44,37,31,30,21,13,95,56,28,0.00,40.00,22,14,32,0.01
2013-5-1,45,34,28,24,18,-100,84,56,27,0.00,40.00,9,3,13,0.00
2013-5-2,59,44,27,29,19,11,73,42,18,0.00,40.00,12,5,19,0.00
2013-5-3,62,50,35,37,26,17,69,44,18,0.00,40.00,17,8,24,0.00
2013-5-4,51,44,41,44,38,-100,99,84,64,0.00,40.00,12,5,17,0.05
2013-5-5,62,49,35,40,32,26,95,57,28,0.00,40.00,12,5,19,0.00
2013-5-6,69,54,38,37,31,-100,73,45,22,0.00,40.00,10,6,17,0.00
2013-5-7,73,59,42,40,30,-100,68,37,19,0.00,40.00,12,6,21,0.00
2013-5-8,68,55,45,41,33,-100,78,48,28,0.00,40.00,18,8,24,0.00
2013-5-9,69,58,44,43,36,32,74,45,25,0.00,40.00,13,5,25,0.00
2013-5-10,70,56,44,42,32,-100,70,45,22,0.00,40.00,20,8,29,0.00
2013-5-11,70,55,39,40,29,-100,66,40,24,0.00,40.00,13,5,19,0.00
2013-5-12,82,68,53,43,36,-100,55,33,18,0.00,40.00,21,9,29,0.00
2013-5-13,87,74,59,47,35,-100,46,26,13,0.00,40.00,15,6,23,0.00
2013-5-14,79,66,51,50,42,30,75,44,17,0.00,40.00,22,7,30,0.00
2013-5-15,73,58,47,45,32,-100,67,40,27,0.00,40.00,11,5,14,0.00
2013-5-16,69,54,46,52,33,-100,94,73,43,0.00,40.00,21,6,27,0.06
2013-5-17,56,51,50,53,43,-100,99,90,82,0.00,40.00,21,5,29,0.04
2013-5-18,59,51,47,52,46,-100,99,89,77,0.00,40.00,17,8,22,0.00
2013-5-19,50,49,48,50,47,-100,100,97,95,0.00,40.00,26,18,37,1.13
2013-5-20,57,49,44,47,40,-100,100,78,35,0.00,40.00,29,20,40,0.11
2013-5-21,61,50,43,43,30,-100,87,56,24,0.00,40.00,17,10,24,0.00
2013-5-22,60,47,41,47,38,-100,98,77,57,0.00,40.00,27,18,35,0.00
2013-5-23,66,54,47,49,40,-100,82,65,51,0.00,40.00,38,30,50,0.00
2013-5-24,69,57,46,49,36,-100,100,53,14,0.00,40.00,21,9,30,0.00
2013-5-25,74,60,46,53,43,36,80,56,36,0.00,40.00,22,8,30,0.00
2013-5-26,71,60,48,56,49,38,90,68,48,0.00,40.00,17,9,24,0.01
2013-5-27,63,53,45,51,45,-100,97,76,40,0.00,40.00,24,10,36,0.07
2013-5-28,68,55,44,49,44,37,90,68,35,0.00,40.00,24,5,39,0.01
2013-5-29,53,50,48,51,48,-100,99,93,86,0.00,40.00,21,10,27,0.14
2013-5-30,48,47,44,47,45,42,97,92,83,0.00,40.00,39,26,54,0.26
2013-5-31,52,45,44,44,38,-100,98,82,67,0.00,40.00,44,32,57,0.24
2013-6-1,65,52,44,47,39,-100,89,66,36,0.00,40.00,21,8,29,0.00
2013-6-2,70,58,44,53,46,-100,93,68,41,0.00,40.00,17,10,23,0.00
2013-6-3,64,52,44,52,40,-100,95,68,33,0.00,40.00,31,18,40,0.11
2013-6-4,50,44,39,41,38,35,94,77,64,0.00,40.00,24,14,32,0.00
2013-6-5,63,50,37,45,40,35,99,71,42,0.00,40.00,10,4,16,0.00
2013-6-6,72,60,44,53,43,-100,88,58,30,0.00,40.00,12,5,18,0.00
2013-6-7,78,62,49,57,49,-100,90,65,30,0.00,40.00,24,5,37,0.07
2013-6-8,71,62,55,54,46,41,93,57,36,0.00,40.00,24,13,32,0.02
2013-6-9,78,65,50,55,46,-100,90,55,32,0.00,40.00,14,7,19,0.00
2013-6-10,74,65,53,55,50,45,85,60,38,0.00,40.00,17,8,26,0.00
2013-6-11,74,62,53,62,54,-100,95,76,60,0.00,40.00,34,12,45,0.21
2013-6-12,68,59,53,60,54,-100,96,84,67,0.00,40.00,23,10,28,0.02
2013-6-13,74,63,55,61,56,51,94,79,52,0.00,40.00,30,11,39,0.00
2013-6-14,65,56,46,51,41,-100,90,60,37,0.00,40.00,31,11,39,0.00
2013-6-15,72,60,44,47,39,32,75,47,28,0.00,40.00,8,3,14,0.00
2013-6-16,75,62,48,52,42,-100,79,52,34,0.00,40.00,10,5,16,0.00
2013-6-17,74,62,52,56,48,-100,85,63,46,0.00,40.00,11,6,16,0.00
2013-6-18,77,64,53,55,47,-100,89,58,29,0.00,40.00,22,11,29,0.00
2013-6-19,87,70,54,57,48,26,79,49,12,0.00,40.00,22,11,32,0.00
2013-6-20,72,58,47,45,40,-100,81,54,31,0.00,40.00,16,8,25,0.00
2013-6-22,59,53,46,52,48,42,97,86,69,0.00,40.00,23,8,30,0.01
2013-6-24,82,64,51,55,42,-100,80,53,20,0.00,40.00,21,6,27,0.00
2013-6-25,82,64,59,53,37,-100,75,45,29,0.00,40.00,22,7,28,0.02
2013-6-26,80,71,60,56,50,43,69,50,35,0.00,40.00,9,4,11,0.00
2013-6-27,82,69,54,58,48,-100,77,53,34,0.00,40.00,12,5,18,0.00
2013-6-28,84,68,60,57,39,-100,77,45,29,0.00,40.00,11,4,17,0.00
2013-6-29,85,73,60,57,50,-100,73,48,30,0.00,40.00,12,5,16,0.00
2013-6-30,85,67,58,57,44,-100,79,51,28,0.00,40.00,12,6,19,0.00
2013-7-1,85,70,59,55,49,-100,75,53,27,0.00,40.00,9,4,13,0.00
2013-7-2,88,73,60,55,45,-100,73,43,21,0.00,40.00,6,3,10,0.00
2013-7-3,89,65,60,59,27,-100,66,36,26,0.00,40.00,24,9,34,0.07
2013-7-4,87,71,62,61,50,-100,90,53,32,0.00,40.00,24,7,31,0.05
2013-7-5,77,66,60,61,54,-100,89,70,51,0.00,40.00,19,9,26,0.00
2013-7-7,84,66,57,60,55,51,87,69,32,0.00,40.00,16,6,23,0.00
2013-7-8,87,67,60,56,48,-100,79,57,18,0.00,40.00,20,10,24,0.00
2013-7-9,77,64,54,58,48,-100,95,63,39,0.00,40.00,10,5,16,0.00
2013-7-10,89,70,58,58,39,-100,77,42,22,0.00,40.00,15,5,19,0.00
2013-7-11,92,74,63,55,45,-100,68,40,17,0.00,40.00,17,10,20,0.00
2013-7-12,81,65,65,55,34,-100,66,42,32,0.00,40.00,18,10,23,0.00
2013-7-13,91,71,62,56,37,-100,73,40,12,0.00,40.00,17,9,23,0.00
2013-7-22,90,69,57,53,35,-100,71,37,17,0.00,40.00,18,9,24,0.00
2013-7-23,86,75,60,51,45,35,64,38,16,0.00,40.00,14,6,17,0.00
2013-7-24,90,78,61,51,46,42,63,35,20,0.00,40.00,16,9,23,0.00
2013-7-25,81,69,55,53,44,-100,81,46,29,0.00,40.00,15,6,22,0.00
2013-7-26,82,66,55,51,42,-100,78,49,31,0.00,40.00,16,10,21,0.00
2013-7-27,87,67,57,52,31,-100,81,36,19,0.00,40.00,15,8,21,0.00
2013-7-28,79,70,60,56,47,40,70,45,29,0.00,40.00,16,6,24,0.00
2013-7-29,72,54,52,57,37,-100,91,69,47,0.00,40.00,14,7,22,0.00
2013-7-30,76,61,57,57,43,-100,86,62,42,0.00,40.00,13,7,17,0.06
2013-7-31,84,64,52,54,37,-100,84,48,17,0.00,40.00,9,4,15,0.00
2013-8-1,87,71,62,58,45,-100,69,45,24,0.00,40.00,19,7,26,0.03
2013-8-2,79,56,56,57,32,-100,97,59,36,0.00,40.00,18,6,29,0.00
2013-8-3,84,66,56,61,52,-100,97,68,38,0.00,40.00,15,8,22,0.00
2013-8-4,80,61,56,61,44,-100,100,69,41,0.00,40.00,16,6,21,0.00
2013-8-5,86,68,58,63,47,-100,100,60,25,0.00,40.00,13,7,19,0.00
2013-8-6,80,65,57,50,36,-100,78,42,22,0.00,40.00,16,7,26,0.00
2013-8-7,84,71,56,49,39,-100,64,35,24,0.00,40.00,17,7,23,0.00
2013-8-8,83,70,55,53,49,45,77,49,28,0.00,40.00,15,7,21,0.00
2013-8-9,76,65,59,60,53,-100,89,68,36,0.00,40.00,17,8,24,0.00
2013-8-10,83,66,54,60,38,-100,100,57,31,0.00,40.00,19,6,24,0.00
2013-8-11,88,72,55,46,42,34,61,37,18,0.00,40.00,27,5,43,0.00
2013-8-18,-200,0,200,-100,-100,-100,0,0,100,0.00,40.00,1,1,4,0.00
2013-8-19,80,24,65,47,-52,-100,50,16,19,0.00,40.00,9,5,11,0.00
2013-8-20,89,35,84,31,-48,-100,21,10,13,0.00,40.00,7,6,14,0.00
2013-8-21,81,47,73,43,-14,-100,34,17,25,0.00,40.00,21,12,27,0.00
2013-8-22,85,32,64,54,-31,-100,66,24,31,0.00,40.00,12,7,18,0.00
2013-8-23,86,37,63,55,-26,-100,73,24,22,0.00,40.00,7,4,12,0.00
2013-8-24,-200,0,200,-100,-100,-100,0,0,100,0.00,40.00,0,0,1,0.00